Tillbaka till svenska Fidonet
English   Information   Debug  
FILM   0/18
FNEWS_PUBLISH   5034
FN_SYSOP   42247
FN_SYSOP_OLD1   71952
FTP_FIDO   0/2
FTSC_PUBLIC   0/13979
FUNNY   0/4886
GENEALOGY.EUR   0/71
GET_INFO   105
GOLDED   225/408
HAM   2352/16786
HOLYSMOKE   0/6791
HOT_SITES   0/1
HTMLEDIT   0/71
HUB203   466
HUB_100   264
HUB_400   39
HUMOR   0/29
IC   1445/2851
INTERNET   0/424
INTERUSER   0/3
IP_CONNECT   719
JAMNNTPD   0/233
JAMTLAND   0/47
KATTY_KORNER   0/41
LAN   0/16
LINUX-USER   0/19
LINUXHELP   0/1155
LINUX   0/22427
LINUX_BBS   0/957
mail   18.68
mail_fore_ok   249
MENSA   0/341
MODERATOR   0/102
MONTE   0/992
MOSCOW_OKLAHOMA   0/1245
MUFFIN   0/783
MUSIC   0/321
N203_STAT   938
N203_SYSCHAT   313
NET203   321
NET204   69
NET_DEV   0/10
NORD.ADMIN   0/101
NORD.CHAT   0/2572
NORD.FIDONET   189
NORD.HARDWARE   0/28
NORD.KULTUR   0/114
NORD.PROG   0/32
NORD.SOFTWARE   0/88
NORD.TEKNIK   0/58
NORD   0/453
OCCULT_CHAT   0/93
OS2BBS   0/787
OS2DOSBBS   0/580
OS2HW   0/42
OS2INET   0/37
OS2LAN   0/134
OS2PROG   0/36
OS2REXX   0/113
OS2USER-L   207
OS2   0/4835
OSDEBATE   0/18996
PASCAL   0/490
PERL   0/457
PHP   0/45
POINTS   0/405
POLITICS   0/29554
POL_INC   1460/14731
PSION   103
R20_ADMIN   1133
R20_AMATORRADIO   0/2
R20_BEST_OF_FIDONET   16
R20_CHAT   0/897
R20_DEPP   0/3
R20_DEV   400
R20_ECHO2   1934
R20_ECHOPRES   0/35
R20_ESTAT   0/719
R20_FIDONETPROG...
...RAM.MYPOINT
  0/2
R20_FIDONETPROGRAM   0/22
R20_FIDONET   0/248
R20_FILEFIND   0/24
R20_FILEFOUND   0/22
R20_HIFI   0/3
R20_INFO2   3827
R20_INTERNET   0/12940
R20_INTRESSE   0/60
R20_INTR_KOM   0/99
R20_KANDIDAT.CHAT   42
R20_KANDIDAT   28
R20_KOM_DEV   112
R20_KONTROLL   0/13360
R20_KORSET   0/18
R20_LOKALTRAFIK   0/24
R20_MODERATOR   0/1852
R20_NC   76
R20_NET200   245
R20_NETWORK.OTH...
...ERNETS
  0/13
R20_OPERATIVSYS...
...TEM.LINUX
  0/44
R20_PROGRAMVAROR   0/1
R20_REC2NEC   534
R20_SFOSM   0/341
R20_SF   0/108
R20_SPRAK.ENGLISH   0/1
R20_SQUISH   107
R20_TEST   2
R20_WORST_OF_FIDONET   20
RAR   0/9
RA_MULTI   106
RA_UTIL   0/162
REGCON.EUR   0/2072
REGCON   0/13
SCIENCE   0/1206
SF   0/239
SHAREWARE_SUPPORT   0/5146
SHAREWRE   0/14
SIMPSONS   0/169
STATS_OLD1   1531/2539.065
STATS_OLD2   0/2530
STATS_OLD3   0/2395.095
STATS_OLD4   0/1692.25
SURVIVOR   0/495
SYSOPS_CORNER   0/3
SYSOP   0/84
TAGLINES   0/112
TEAMOS2   0/4530
TECH   0/2617
TEST.444   0/105
TRAPDOOR   0/19
TREK   0/755
TUB   0/290
UFO   0/40
UNIX   0/1316
USA_EURLINK   0/102
USR_MODEMS   0/1
VATICAN   0/2740
VIETNAM_VETS   0/14
VIRUS   0/378
VIRUS_INFO   0/201
VISUAL_BASIC   0/473
WHITEHOUSE   0/5187
WIN2000   0/101
WIN32   0/30
WIN95   0/4291
WIN95_OLD1   57733/70272
WINDOWS   0/1517
WWB_SYSOP   0/419
WWB_TECH   0/810
ZCC-PUBLIC   0/1
ZEC   4

 
4DOS   0/134
ABORTION   0/7
ALASKA_CHAT   0/506
ALLFIX_FILE   0/1313
ALLFIX_FILE_OLD1   0/7997
ALT_DOS   0/152
AMATEUR_RADIO   0/1039
AMIGASALE   0/14
AMIGA   0/331
AMIGA_INT   0/1
AMIGA_PROG   0/20
AMIGA_SYSOP   0/26
ANIME   0/15
ARGUS   0/924
ASCII_ART   0/340
ASIAN_LINK   0/651
ASTRONOMY   0/417
AUDIO   0/92
AUTOMOBILE_RACING   0/105
BABYLON5   0/17862
BAG   135
BATPOWER   0/361
BBBS.ENGLISH   0/382
BBSLAW   0/109
BBS_ADS   0/5290
BBS_INTERNET   0/507
BIBLE   547/3563
BINKD   0/1119
BINKLEY   0/215
BLUEWAVE   0/2173
CABLE_MODEMS   0/25
CBM   0/46
CDRECORD   0/66
CDROM   0/20
CLASSIC_COMPUTER   0/378
COMICS   0/15
CONSPRCY   0/899
COOKING   42383
COOKING_OLD1   0/24719
COOKING_OLD2   0/40862
COOKING_OLD3   0/37489
COOKING_OLD4   11163/35496
COOKING_OLD5   9370
C_ECHO   0/189
C_PLUSPLUS   0/31
DIRTY_DOZEN   0/201
DOORGAMES   0/2388
DOS_INTERNET   0/196
duplikat   6102
ECHOLIST   11179/18295
EC_SUPPORT   159/318
ELECTRONICS   0/359
ELEKTRONIK.GER   1534
ENET.LINGUISTIC   0/13
ENET.POLITICS   0/4
ENET.SOFT   0/11701
ENET.SYSOP   34411
ENET.TALKS   0/32
ENGLISH_TUTOR   0/2000
EVOLUTION   0/1335
FDECHO   0/217
FDN_ANNOUNCE   0/7068
FIDONEWS   25226
FIDONEWS_OLD1   0/49742
FIDONEWS_OLD2   0/35949
FIDONEWS_OLD3   0/30874
FIDONEWS_OLD4   0/37224
FIDO_SYSOP   12977
FIDO_UTIL   0/180
FILEFIND   0/209
FILEGATE   0/212
Möte HAM, 16786 texter
 lista första sista föregående nästa
Text 2392, 815 rader
Skriven 2008-07-10 20:00:18 av Amsat List (1:323/120.0)
Ärende: [keps]  orb08192.amsa
=============================
[keps]  orb08192.amsa

Return-Path: <keps-bounces@amsat.org>
X-Rcpt: craig.healy@chowda.com
X-UIDL: 1215733362.41922

SB KEPS @ AMSAT  $ORB08192.O
Orbital Elements  08192.OSCAR

HR AMSAT ORBITAL ELEMENTS FOR OSCAR SATELLITES
FROM WA5QGD FORT WORTH,TX July 10, 2008
Send Subscribe/unsubscribe to KEPS at 
http://www.amsat.org/mailman/listinfo/keps
BID: ORB08192.O
TO ALL RADIO AMATEURS BT

Satellite: AO-07
Catalog number: 07530
Epoch time:      08191.63939258
Element set:     222
Inclination:      101.4638 deg
RA of node:       222.3840 deg
Eccentricity:    0.0011699
Arg of perigee:   217.5844 deg
Mean anomaly:     142.4407 deg
Mean motion:   12.53573775 rev/day
Decay rate:       -2.7e-07 rev/day^2
Epoch rev:           53979
Checksum:              314

Satellite: AO-10
Catalog number: 14129
Epoch time:      08190.10576138
Element set:    0528
Inclination:      025.9872 deg
RA of node:       206.6143 deg
Eccentricity:    0.5978692
Arg of perigee:   138.4081 deg
Mean anomaly:     287.2936 deg
Mean motion:   02.05869898 rev/day
Decay rate:      -1.27e-06 rev/day^2
Epoch rev:           18853
Checksum:              346

Satellite: UO-11
Catalog number: 14781
Epoch time:      08191.70455790
Element set:    0716
Inclination:      098.1519 deg
RA of node:       226.0740 deg
Eccentricity:    0.0009530
Arg of perigee:   007.3454 deg
Mean anomaly:     352.7805 deg
Mean motion:   14.79655888 rev/day
Decay rate:       6.96e-06 rev/day^2
Epoch rev:           30718
Checksum:              328

Satellite: RS-15
Catalog number: 23439
Epoch time:      08191.89623919
Element set:    0135
Inclination:      064.8153 deg
RA of node:       098.3251 deg
Eccentricity:    0.0147275
Arg of perigee:   118.5928 deg
Mean anomaly:     242.9902 deg
Mean motion:   11.27552319 rev/day
Decay rate:       -3.9e-07 rev/day^2
Epoch rev:           55752
Checksum:              329

Satellite: FO-29
Catalog number: 24278
Epoch time:      08192.63915145
Element set:     809
Inclination:      098.5855 deg
RA of node:       105.8625 deg
Eccentricity:    0.0351094
Arg of perigee:   154.7658 deg
Mean anomaly:     207.1235 deg
Mean motion:   13.52938664 rev/day
Decay rate:        1.7e-07 rev/day^2
Epoch rev:           58756
Checksum:              347

Satellite: SO-33
Catalog number: 25509
Epoch time:      08191.41739907
Element set:     237
Inclination:      031.4310 deg
RA of node:       190.6591 deg
Eccentricity:    0.0355359
Arg of perigee:   221.5991 deg
Mean anomaly:     135.7099 deg
Mean motion:   14.28217335 rev/day
Decay rate:      -2.38e-06 rev/day^2
Epoch rev:           50679
Checksum:              321

Satellite: AO-40
Catalog number: 26609
Epoch time:      08190.30569789
Element set:      87
Inclination:      007.6097 deg
RA of node:       073.4010 deg
Eccentricity:    0.7917818
Arg of perigee:   099.3318 deg
Mean anomaly:     347.2192 deg
Mean motion:   01.25582485 rev/day
Decay rate:      -1.55e-06 rev/day^2
Epoch rev:            3530
Checksum:              326

Satellite: VO-52
Catalog number: 28650
Epoch time:      08191.83010592
Element set:    0977
Inclination:      097.7897 deg
RA of node:       257.8202 deg
Eccentricity:    0.0028263
Arg of perigee:   067.9292 deg
Mean anomaly:     292.4951 deg
Mean motion:   14.81482057 rev/day
Decay rate:       4.14e-06 rev/day^2
Epoch rev:           17195
Checksum:              341

Satellite: PO-63
Catalog number: 29712
Epoch time:      08192.74881263
Element set:     605
Inclination:      097.8739 deg
RA of node:       250.4929 deg
Eccentricity:    0.0013386
Arg of perigee:   309.4064 deg
Mean anomaly:     050.5956 deg
Mean motion:   14.80206417 rev/day
Decay rate:       3.79e-06 rev/day^2
Epoch rev:            8095
Checksum:              335

/EX
SB KEPS @ AMSAT  $ORB08192.D
Orbital Elements  08192.MICROS

HR AMSAT ORBITAL ELEMENTS FOR THE MICROSATS
FROM WA5QGD FORT WORTH,TX July 10, 2008
Send Subscribe/unsubscribe to KEPS at 
http://www.amsat.org/mailman/listinfo/keps
BID: ORB08192.D
TO ALL RADIO AMATEURS BT

Satellite: AO-16
Catalog number: 20439
Epoch time:      08191.85259945
Element set:    0365
Inclination:      098.2302 deg
RA of node:       170.7568 deg
Eccentricity:    0.0011753
Arg of perigee:   106.5614 deg
Mean anomaly:     253.6864 deg
Mean motion:   14.31797603 rev/day
Decay rate:       -1.9e-07 rev/day^2
Epoch rev:           96416
Checksum:              326

Satellite: LO-19
Catalog number: 20442
Epoch time:      08192.52499167
Element set:     290
Inclination:      098.2024 deg
RA of node:       179.8627 deg
Eccentricity:    0.0012911
Arg of perigee:   103.9789 deg
Mean anomaly:     256.2826 deg
Mean motion:   14.32036036 rev/day
Decay rate:        1.4e-07 rev/day^2
Epoch rev:           96441
Checksum:              311

Satellite: AO-27
Catalog number: 22825
Epoch time:      08191.81307716
Element set:      12
Inclination:      098.3848 deg
RA of node:       150.9876 deg
Eccentricity:    0.0008008
Arg of perigee:   188.4514 deg
Mean anomaly:     171.6527 deg
Mean motion:   14.29243074 rev/day
Decay rate:       1.10e-06 rev/day^2
Epoch rev:           77100
Checksum:              298

Satellite: IO-26
Catalog number: 22826
Epoch time:      08191.93318477
Element set:    0720
Inclination:      098.3784 deg
RA of node:       152.0033 deg
Eccentricity:    0.0008600
Arg of perigee:   185.2110 deg
Mean anomaly:     174.8988 deg
Mean motion:   14.29491216 rev/day
Decay rate:       -3.4e-07 rev/day^2
Epoch rev:           77111
Checksum:              303

